TimeEST,TemperatureF,Dew PointF,Humidity,Sea Level PressureIn,VisibilityMPH,Wind Direction,Wind SpeedMPH,Gust SpeedMPH,PrecipitationIn,Events,Conditions,WindDirDegrees,DateUTC
12:11 AM,26.6,21.2,80,30.10,2.5,Calm,Calm,-,0.00,Snow,Light Snow,0,2013-03-03 05:11:00
12:29 AM,26.6,21.2,80,30.10,4.0,WNW,3.5,-,0.00,Snow,Light Snow,300,2013-03-03 05:29:00
12:46 AM,26.6,21.2,80,30.10,3.0,NW,4.6,-,0.00,Snow,Light Snow,310,2013-03-03 05:46:00
12:53 AM,27.0,21.9,81,30.13,4.0,Variable,3.5,-,0.00,Snow,Light Snow,0,2013-03-03 05:53:00
1:17 AM,26.6,21.2,80,30.10,8.0,WNW,4.6,-,0.00,Snow,Light Snow,300,2013-03-03 06:17:00
1:32 AM,26.6,21.2,80,30.10,10.0,Variable,4.6,-,0.00,,Overcast,0,2013-03-03 06:32:00
1:53 AM,27.0,19.9,75,30.13,10.0,Variable,4.6,-,0.00,,Overcast,0,2013-03-03 06:53:00
2:53 AM,26.1,19.9,78,30.12,10.0,NW,5.8,-,N/A,,Overcast,310,2013-03-03 07:53:00
3:53 AM,26.1,19.9,78,30.12,10.0,Variable,4.6,-,N/A,,Overcast,0,2013-03-03 08:53:00
4:53 AM,24.1,19.0,81,30.11,10.0,NW,3.5,-,N/A,,Partly Cloudy,310,2013-03-03 09:53:00
5:53 AM,21.0,17.1,85,30.11,10.0,West,3.5,-,N/A,,Clear,260,2013-03-03 10:53:00
6:53 AM,21.0,17.1,85,30.12,9.0,Calm,Calm,-,N/A,,Clear,0,2013-03-03 11:53:00
7:53 AM,21.0,17.1,85,30.13,10.0,WNW,3.5,-,N/A,,Clear,290,2013-03-03 12:53:00
8:53 AM,23.0,17.1,78,30.15,10.0,WNW,4.6,-,N/A,,Clear,300,2013-03-03 13:53:00
9:53 AM,26.1,18.0,71,30.14,10.0,West,4.6,-,N/A,,Clear,280,2013-03-03 14:53:00
10:53 AM,28.9,18.0,64,30.13,10.0,West,6.9,-,N/A,,Scattered Clouds,270,2013-03-03 15:53:00
11:45 AM,30.2,17.6,60,30.11,10.0,NNW,4.6,-,N/A,,Overcast,340,2013-03-03 16:45:00
11:53 AM,30.0,17.1,59,30.13,10.0,Variable,3.5,-,N/A,,Overcast,0,2013-03-03 16:53:00
12:53 PM,32.0,17.1,54,30.12,10.0,Variable,4.6,-,N/A,,Scattered Clouds,0,2013-03-03 17:53:00
1:53 PM,33.1,16.0,50,30.09,10.0,West,3.5,-,N/A,,Partly Cloudy,260,2013-03-03 18:53:00
2:53 PM,35.1,18.0,50,30.07,10.0,West,9.2,-,N/A,,Clear,270,2013-03-03 19:53:00
3:53 PM,35.1,15.1,44,30.07,10.0,WNW,10.4,-,N/A,,Partly Cloudy,290,2013-03-03 20:53:00
4:53 PM,35.1,15.1,44,30.07,10.0,Variable,4.6,-,N/A,,Clear,0,2013-03-03 21:53:00
5:53 PM,34.0,12.9,42,30.08,10.0,WNW,8.1,-,N/A,,Clear,290,2013-03-03 22:53:00
6:53 PM,32.0,15.1,50,30.09,10.0,West,3.5,-,N/A,,Clear,280,2013-03-03 23:53:00
7:53 PM,28.0,19.0,69,30.10,10.0,Calm,Calm,-,N/A,,Clear,0,2013-03-04 00:53:00
8:53 PM,26.1,18.0,71,30.10,10.0,Calm,Calm,-,N/A,,Clear,0,2013-03-04 01:53:00
9:53 PM,24.1,17.1,75,30.11,10.0,Calm,Calm,-,N/A,,Clear,0,2013-03-04 02:53:00
10:53 PM,24.1,18.0,77,30.10,7.0,Calm,Calm,-,N/A,,Clear,0,2013-03-04 03:53:00
11:53 PM,21.9,16.0,78,30.12,10.0,Calm,Calm,-,N/A,,Clear,0,2013-03-04 04:53:00